Location: Autingues
(50.8400°N, 1.9737°E)
Time: 16:19:59
(UTC+00:00)

Geosat - Pass Details

Date: 15 May 2026
Orbit: 758 x 760 km, 108.0° (Epoch: 9 June)

Event Time Altitude Azimuth Distance (km) Brightness Sun altitude
Rises 22:25:41 0° 31° (NNE) 3,231 7.8 -17.8°
Reaches altitude 10° 22:27:59 10° 34° (NE) 2,301 6.9 -17.9°
Maximum altitude 22:32:59 70° 118° (ESE) 809 3.9 -18.2°
Enters shadow 22:35:39 28° 196° (SSW) 1,405 4.9 -18.3°
